Weather History for Bluefield, WV

Change the Weather History Date:

Friday, February 15, 2013

  Actual Average Record
Temperature  
Mean Temperature 41 °F 37 °F  
Max Temperature 52 °F 46 °F 72 °F (1990)
Min Temperature 30 °F 29 °F 2 °F (1963)
Degree Days  
Heating Degree Days 24 28  
Month to date heating degree days 427 434  
Since 1 July heating degree days 3003 3154  
Cooling Degree Days 0 0  
Month to date cooling degree days 0 0  
Year to date cooling degree days 1 0  
Moisture  
Dew Point 29 °F    
Average Humidity 62    
Maximum Humidity 85    
Minimum Humidity 39    
Precipitation  
Precipitation 0.10 in 0.10 in 1.85 in (2003)
Month to date precipitation 0.82 1.44  
Year to date precipitation 6.82 4.34  
Snow  
Snow 1.90 in - - ()
Month to date snowfall 7.9  
Since 1 July snowfall 36.4  
Snow Depth 2.00 in    
Sea Level Pressure  
Sea Level Pressure 29.99 in    
Wind  
Wind Speed 8 mph (WNW)    
Max Wind Speed 22 mph    
Max Gust Speed 30 mph    
Visibility 6 miles    
Events Rain , Snow    
T = Trace of Precipitation, MM = Missing Value Source: NWS Daily Summary

Daily Weather History Graph

Daily Weather History Graph

Search for Another Location

Airport:

Trip Planner

Search our weather history database for the weather conditions in past years. The results will help you decide how hot, cold, wet, or windy it might be!

Date:

Astronomy

Feb. 15, 2013 Rise Set
Actual Time 7:13 AM EST 6:04 PM EST
Civil Twilight 6:46 AM EST 6:31 PM EST
Nautical Twilight 6:16 AM EST 7:02 PM EST
Astronomical Twilight 5:46 AM EST 7:32 PM EST
Moon 9:57 AM EST (2/15) 11:55 PM EST (2/15)
Length of Visible Light 11h 44m
Length of Day
10h 51m
Waxing Crescent, 30% of the Moon is Illuminated
Feb 15
Waxing Crescent
Feb 17
First Quarter
Feb 25
Full
Mar 4
Last Quarter
Mar 11
New

Hourly Weather History & Observations

Time (EST) Temp. Windchill Dew Point Humidity Pressure Visibility Wind Dir Wind Speed Gust Speed Precip Events Conditions
12:52 AM 36.0 °F 31.1 °F 27.0 °F 70% 29.99 in 10.0 mi WSW 5.8 mph - N/A   Clear
1:52 AM 37.0 °F 32.4 °F 28.0 °F 70% 29.99 in 10.0 mi WSW 5.8 mph - N/A   Scattered Clouds
2:52 AM 37.0 °F 33.3 °F 28.9 °F 73% 30.00 in 10.0 mi WSW 4.6 mph - N/A   Mostly Cloudy
3:52 AM 37.0 °F 33.3 °F 28.9 °F 73% 29.99 in 10.0 mi WSW 4.6 mph - N/A   Scattered Clouds
4:52 AM 36.0 °F 31.1 °F 28.9 °F 76% 29.99 in 10.0 mi WSW 5.8 mph - N/A   Clear
5:52 AM 36.0 °F 29.6 °F 28.9 °F 76% 30.00 in 10.0 mi WSW 8.1 mph - N/A   Clear
6:52 AM 37.0 °F 33.3 °F 28.9 °F 73% 30.01 in 10.0 mi West 4.6 mph - N/A   Clear
7:52 AM 37.0 °F 32.4 °F 28.9 °F 73% 30.02 in 10.0 mi WSW 5.8 mph - N/A   Clear
8:52 AM 41.0 °F 36.4 °F 30.0 °F 65% 30.03 in 10.0 mi West 6.9 mph - N/A   Clear
9:52 AM 45.0 °F 40.6 °F 30.9 °F 58% 30.01 in 10.0 mi WSW 8.1 mph - N/A   Clear
10:52 AM 50.0 °F - 30.0 °F 46% 29.99 in 10.0 mi WSW 15.0 mph 20.7 mph N/A   Clear
11:52 AM 51.1 °F - 28.0 °F 41% 29.96 in 10.0 mi West 11.5 mph 25.3 mph N/A   Mostly Cloudy
12:52 PM 48.9 °F - 25.0 °F 39% 29.94 in 10.0 mi West 15.0 mph 23.0 mph N/A   Overcast
1:52 PM 50.0 °F - 26.1 °F 39% 29.91 in 10.0 mi West 19.6 mph 26.5 mph N/A   Overcast
2:52 PM 46.9 °F - 28.9 °F 50% 29.91 in 10.0 mi WNW 11.5 mph 18.4 mph N/A   Overcast
3:20 PM 42.8 °F 36.6 °F 33.8 °F 70% 29.93 in 7.0 mi NW 11.5 mph 19.6 mph 0.01 in Rain Light Rain
3:37 PM 39.2 °F 31.6 °F 33.8 °F 81% 29.94 in 7.0 mi NW 12.7 mph 20.7 mph 0.03 in Rain Light Rain
3:44 PM 39.2 °F 31.2 °F 33.8 °F 81% 29.95 in 9.0 mi WNW 13.8 mph 20.7 mph 0.03 in Rain Light Rain
3:52 PM 37.9 °F 31.5 °F 33.1 °F 83% 29.97 in 10.0 mi NW 9.2 mph 18.4 mph 0.03 in Rain Light Rain
4:27 PM 35.6 °F 29.2 °F 30.2 °F 81% 29.96 in 7.0 mi WNW 8.1 mph - 0.00 in Snow Light Snow
4:34 PM 35.6 °F 29.9 °F 30.2 °F 81% 29.96 in 4.0 mi WNW 6.9 mph - 0.00 in Snow Light Snow
4:52 PM 35.1 °F 28.6 °F 30.9 °F 85% 30.00 in 2.5 mi WNW 8.1 mph 17.3 mph 0.01 in Snow Light Snow
5:03 PM 33.8 °F 25.3 °F 30.2 °F 87% 29.98 in 1.2 mi WNW 11.5 mph 17.3 mph 0.00 in Snow Light Snow
5:06 PM 33.8 °F 27.0 °F 30.2 °F 87% 29.98 in 1.0 mi NW 8.1 mph - 0.00 in Snow Light Snow
5:17 PM 33.8 °F 25.8 °F 30.2 °F 87% 29.98 in 0.8 mi WNW 10.4 mph - 0.00 in Snow Light Snow
5:28 PM 33.8 °F 25.8 °F 28.4 °F 81% 29.98 in 0.5 mi WNW 10.4 mph - 0.01 in Snow Snow
5:34 PM 33.8 °F 27.0 °F 28.4 °F 81% 29.98 in 1.0 mi WNW 8.1 mph - 0.01 in Snow Light Snow
5:37 PM 33.8 °F 27.7 °F 28.4 °F 81% 29.98 in 0.8 mi NW 6.9 mph - 0.01 in Snow Light Snow
5:52 PM 33.1 °F 26.1 °F 28.9 °F 85% 30.02 in 0.8 mi WNW 8.1 mph - 0.01 in Snow Light Snow
6:03 PM 33.8 °F 28.6 °F 28.4 °F 81% 29.98 in 1.0 mi WNW 5.8 mph - 0.01 in Snow Light Snow
6:21 PM 33.8 °F 28.6 °F 30.2 °F 87% 29.98 in 2.0 mi West 5.8 mph - 0.01 in Snow Light Snow
6:41 PM 33.8 °F 28.6 °F 28.4 °F 81% 29.99 in 3.0 mi WNW 5.8 mph - 0.01 in Snow Light Snow
6:52 PM 33.1 °F 26.9 °F 28.9 °F 85% 30.02 in 2.0 mi West 6.9 mph - 0.02 in Snow Light Snow
6:59 PM 33.8 °F 27.7 °F 28.4 °F 81% 29.99 in 1.2 mi West 6.9 mph - 0.00 in Snow Light Snow
7:32 PM 33.8 °F 29.6 °F 28.4 °F 81% 30.00 in 2.0 mi WNW 4.6 mph - 0.01 in Snow Light Snow
7:43 PM 33.8 °F 27.0 °F 28.4 °F 81% 30.01 in 1.5 mi WNW 8.1 mph - 0.02 in Snow Light Snow
7:49 PM 33.8 °F 28.6 °F 28.4 °F 81% 30.00 in 3.0 mi NW 5.8 mph - 0.02 in Snow Light Snow
8:00 PM 32.0 °F 24.8 °F 28.4 °F 87% 30.01 in 6.0 mi WNW 8.1 mph - 0.00 in Snow Light Snow
8:03 PM 32.0 °F 26.4 °F 28.4 °F 87% 30.01 in 7.0 mi WNW 5.8 mph - 0.00 in Snow Light Snow
8:10 PM 32.0 °F 25.6 °F 28.4 °F 87% 30.01 in 5.0 mi WNW 6.9 mph - 0.00 in Snow Light Snow
8:26 PM 32.0 °F 26.4 °F 28.4 °F 87% 30.01 in 2.5 mi WNW 5.8 mph - 0.00 in Snow Light Snow
8:52 PM 32.0 °F 25.6 °F 28.0 °F 85% 30.03 in 2.5 mi NW 6.9 mph - 0.00 in Snow Light Snow
8:59 PM 32.0 °F 25.6 °F 28.4 °F 87% 30.01 in 3.0 mi WNW 6.9 mph - 0.00 in Snow Light Snow
9:23 PM 32.0 °F 24.8 °F 28.4 °F 87% 30.01 in 2.0 mi WNW 8.1 mph - 0.00 in Snow Light Snow
9:30 PM 32.0 °F 24.8 °F 28.4 °F 87% 30.01 in 1.5 mi WNW 8.1 mph - 0.01 in Snow Light Snow
9:48 PM 32.0 °F 25.6 °F 26.6 °F 80% 30.01 in 3.0 mi West 6.9 mph - 0.01 in Snow Light Snow
9:52 PM 32.0 °F 24.2 °F 27.0 °F 82% 30.03 in 3.0 mi WNW 9.2 mph - 0.01 in Snow Light Snow
10:19 PM 30.2 °F 21.9 °F 26.6 °F 86% 30.01 in 4.0 mi WNW 9.2 mph - 0.00 in Snow Light Snow
10:52 PM 30.0 °F 25.2 °F 26.1 °F 85% 30.02 in 8.0 mi West 4.6 mph - 0.00 in Snow Light Snow
11:04 PM 30.2 °F 24.3 °F 26.6 °F 86% 30.00 in 10.0 mi West 5.8 mph - 0.00 in   Overcast
11:35 PM 30.2 °F 23.4 °F 26.6 °F 86% 29.98 in 10.0 mi WNW 6.9 mph - 0.00 in   Overcast
11:52 PM 30.0 °F 24.1 °F 25.0 °F 82% 29.99 in 10.0 mi West 5.8 mph - 0.00 in   Overcast